Millington, TN

9:25 PM CST on January 20, 2018 (GMT -0600)
Millington Municipal

Weather History for KNQA - June, 2014

Change the Weather History Date:

Wednesday, June 25, 2014

  Actual Average Record
Temperature  
Mean Temperature 82 °F -  
Max Temperature 93 °F 87 °F 100 °F (2010)
Min Temperature 71 °F 69 °F 62 °F (2006)
Cooling Degree Days 17    
Growing Degree Days 32 (Base 50)    
Moisture  
Dew Point 72 °F    
Average Humidity 82    
Maximum Humidity 100    
Minimum Humidity 49    
Precipitation  
Precipitation 0.00 in - - ()
Sea Level Pressure  
Sea Level Pressure 30.03 in    
Wind  
Wind Speed 3 mph (SW)    
Max Wind Speed 9 mph    
Max Gust Speed -    
Visibility 10 miles    
Events      
Averages and records for this station are not official NWS values.
T = Trace of Precipitation, MM = Missing Value Source: NWS Daily Summary

Daily Weather History Graph

Daily Weather History Graph

Search for Another Location

Airport or City:

Trip Planner

Search our weather history database for the weather conditions in past years. The results will help you decide how hot, cold, wet, or windy it might be!

Date:

Astronomy

Jun. 25, 2014 Rise Set
Actual Time 5:45 AM CDT 8:18 PM CDT
Civil Twilight 5:16 AM CDT 8:48 PM CDT
Nautical Twilight 4:39 AM CDT 9:25 PM CDT
Astronomical Twilight 3:57 AM CDT 10:06 PM CDT
Moon 4:33 AM CDT (6/25) 6:53 PM CDT (6/25)
Length of Visible Light 15h 32m
Length of Day
14h 32m
Waning Crescent, 3% of the Moon is Illuminated
Jun 25
Waning Crescent
Jun 27
New
Jul 5
First Quarter
Jul 12
Full
Jul 18
Last Quarter

Hourly Weather History & Observations

Time (CDT) Temp. Heat Index Dew Point Humidity Pressure Visibility Wind Dir Wind Speed Gust Speed Precip Events Conditions
12:50 AM 77.0 °F - 69.8 °F 78% 30.01 in 10.0 mi West 9.2 mph - N/A   Overcast
1:50 AM 73.4 °F - 69.8 °F 88% 30.00 in 10.0 mi Calm Calm - N/A   Scattered Clouds
2:15 AM 71.6 °F - 69.8 °F 94% 30.00 in 10.0 mi Calm Calm - N/A   Partly Cloudy
2:35 AM 71.6 °F - 69.8 °F 94% 30.00 in 10.0 mi Calm Calm - N/A   Scattered Clouds
2:55 AM 71.6 °F - 69.8 °F 94% 30.00 in 10.0 mi Calm Calm - N/A   Scattered Clouds
3:15 AM 73.4 °F - 71.6 °F 94% 30.01 in 10.0 mi Calm Calm - N/A   Scattered Clouds
3:35 AM 71.6 °F - 69.8 °F 94% 30.00 in 10.0 mi Calm Calm - N/A   Partly Cloudy
3:55 AM 71.6 °F - 69.8 °F 94% 30.01 in 10.0 mi Calm Calm - N/A   Scattered Clouds
4:15 AM 71.6 °F - 69.8 °F 94% 30.01 in 10.0 mi Calm Calm - N/A   Partly Cloudy
4:35 AM 71.6 °F - 71.6 °F 100% 30.02 in 10.0 mi Calm Calm - N/A   Scattered Clouds
4:55 AM 71.6 °F - 71.6 °F 100% 30.02 in 10.0 mi Calm Calm - N/A   Mostly Cloudy
5:30 AM 71.6 °F - 71.6 °F 100% 30.02 in 10.0 mi Calm Calm - N/A   Mostly Cloudy
5:50 AM 71.6 °F - 69.8 °F 94% 30.02 in 10.0 mi Calm Calm - N/A   Mostly Cloudy
6:50 AM 73.4 °F - 71.6 °F 94% 30.04 in 10.0 mi Calm Calm - N/A   Mostly Cloudy
7:50 AM 77.0 °F - 73.4 °F 89% 30.05 in 10.0 mi SSW 5.8 mph - N/A   Mostly Cloudy
8:50 AM 80.6 °F 85.4 °F 73.4 °F 79% 30.07 in 10.0 mi SSW 5.8 mph - N/A   Mostly Cloudy
9:50 AM 84.2 °F 90.9 °F 73.4 °F 70% 30.07 in 10.0 mi SSW 4.6 mph - N/A   Mostly Cloudy
10:50 AM 86.0 °F 93.4 °F 73.4 °F 66% 30.07 in 10.0 mi SSW 4.6 mph - N/A   Mostly Cloudy
11:50 AM 89.6 °F 98.2 °F 73.4 °F 59% 30.07 in 10.0 mi Variable 4.6 mph - N/A   Mostly Cloudy
12:50 PM 91.4 °F 100.1 °F 73.4 °F 55% 30.06 in 10.0 mi WNW 4.6 mph - N/A   Mostly Cloudy
1:50 PM 89.6 °F 98.2 °F 73.4 °F 59% 30.04 in 10.0 mi WNW 5.8 mph - N/A   Mostly Cloudy
2:50 PM 93.2 °F 100.5 °F 71.6 °F 49% 30.01 in 10.0 mi Variable 5.8 mph - N/A   Mostly Cloudy
4:50 PM 86.0 °F 93.4 °F 73.4 °F 66% 30.00 in 10.0 mi SSW 5.8 mph - N/A   Mostly Cloudy
5:50 PM 86.0 °F 91.8 °F 71.6 °F 62% 30.00 in 10.0 mi SSW 5.8 mph - N/A   Mostly Cloudy
6:50 PM 82.4 °F 87.2 °F 71.6 °F 70% 30.01 in 10.0 mi Calm Calm - N/A   Mostly Cloudy
7:50 PM 80.6 °F 85.4 °F 73.4 °F 79% 30.01 in 10.0 mi Calm Calm - N/A   Mostly Cloudy
8:50 PM 78.8 °F - 73.4 °F 83% 30.02 in 10.0 mi Calm Calm - N/A   Overcast
9:50 PM 75.2 °F - 73.4 °F 94% 30.04 in 10.0 mi Calm Calm - N/A   Overcast
10:50 PM 77.0 °F - 73.4 °F 89% 30.04 in 10.0 mi Calm Calm - N/A   Overcast
11:50 PM 75.2 °F - 71.6 °F 89% 30.05 in 10.0 mi Variable 3.5 mph - N/A   Overcast